| time (UTC) | temp F | wind direction | speed knots | gust knots | rain 1hr in | rain 24hr in | rain mn in | humidity % | barometer mb |
| 20260502194528 | 47 | 317 | 4.3 | 10.4 | 0.00 | 0.00 | 0.00 | 45 | 1016.9 |
| 20260502193023 | 47 | 17 | 0.0 | 4.3 | 0.00 | 0.00 | 0.00 | 48 | 1017.0 |
| 20260502191521 | 47 | 338 | 4.3 | 9.6 | 0.00 | 0.00 | 0.00 | 48 | 1017.2 |
| 20260502190020 | 47 | 273 | 3.5 | 7.8 | 0.00 | 0.00 | 0.00 | 47 | 1017.4 |
| 20260502184522 | 47 | 276 | 5.2 | 11.3 | 0.00 | 0.00 | 0.00 | 45 | 1017.5 |
| 20260502183016 | 46 | 341 | 3.5 | 7.0 | 0.00 | 0.00 | 0.00 | 51 | 1017.5 |
| 20260502181515 | 46 | 290 | 3.5 | 7.0 | 0.00 | 0.00 | 0.00 | 48 | 1017.7 |
| 20260502163012 | 43 | 326 | 2.6 | 8.7 | 0.00 | 0.00 | 0.00 | 53 | 1018.4 |
| 20260502161508 | 43 | 355 | 2.6 | 7.8 | 0.00 | 0.00 | 0.00 | 51 | 1018.5 |
| 20260502151507 | 42 | 325 | 1.7 | 7.0 | 0.00 | 0.00 | 0.00 | 53 | 1018.4 |
| 20260502123055 | 37 | 335 | 1.7 | 5.2 | 0.00 | 0.00 | 0.00 | 77 | 1018.9 |
| 20260502121537 | 36 | 337 | 0.0 | 0.0 | 0.00 | 0.00 | 0.00 | 79 | 1019.0 |
| 20260502114536 | 34 | 336 | 0.0 | 0.0 | 0.00 | 0.00 | 0.00 | 84 | 1019.0 |
| 20260502113035 | 33 | 336 | 0.0 | 0.0 | 0.00 | 0.00 | 0.00 | 85 | 1018.9 |
| 20260502111531 | 32 | 336 | 0.0 | 0.0 | 0.00 | 0.00 | 0.00 | 85 | 1018.7 |
| 20260502110030 | 32 | 336 | 0.0 | 0.0 | 0.00 | 0.00 | 0.00 | 84 | 1018.6 |
| 20260502104535 | 32 | 336 | 0.0 | 0.0 | 0.00 | 0.00 | 0.00 | 83 | 1018.5 |
| 20260502103026 | 32 | 336 | 0.0 | 0.0 | 0.00 | 0.00 | 0.00 | 83 | 1018.4 |
| 20260502101525 | 33 | 336 | 0.0 | 0.0 | 0.00 | 0.00 | 0.00 | 82 | 1018.3 |
| 20260502091515 | 34 | 336 | 0.0 | 0.0 | 0.00 | 0.00 | 0.00 | 78 | 1017.9 |
| 20260502071501 | 38 | 336 | 0.0 | 0.0 | 0.00 | 0.00 | 0.00 | 70 | 1017.5 |
| 20260502064601 | 38 | 336 | 0.0 | 0.0 | 0.00 | 0.00 | 0.00 | 68 | 1017.6 |
| 20260502063057 | 38 | 336 | 0.0 | 0.0 | 0.00 | 0.00 | 0.00 | 67 | 1017.7 |
| 20260502061555 | 39 | 5 | 0.0 | 0.0 | 0.00 | 0.00 | 0.00 | 66 | 1017.8 |
| 20260502060057 | 39 | 5 | 0.0 | 0.0 | 0.00 | 0.00 | 0.00 | 65 | 1017.7 |
| 20260502054558 | 39 | 5 | 0.0 | 0.0 | 0.00 | 0.00 | 0.00 | 65 | 1017.8 |
| 20260502053109 | 39 | 9 | 0.0 | 0.0 | 0.00 | 0.00 | 0.00 | 65 | 1017.7 |
| 20260502051551 | 39 | 24 | 0.0 | 0.0 | 0.00 | 0.00 | 0.00 | 64 | 1017.7 |
| 20260502050053 | 39 | 24 | 0.0 | 0.0 | 0.00 | 0.00 | 0.00 | 63 | 1017.7 |
| 20260502044545 | 40 | 19 | 0.0 | 0.0 | 0.00 | 0.00 | 0.00 | 63 | 1017.5 |
| 20260502043044 | 40 | 21 | 0.0 | 0.0 | 0.00 | 0.00 | 0.00 | 62 | 1017.5 |
| 20260502041544 | 40 | 28 | 0.0 | 0.0 | 0.00 | 0.00 | 0.00 | 62 | 1017.4 |
| 20260502040045 | 40 | 28 | 0.0 | 0.0 | 0.00 | 0.00 | 0.00 | 62 | 1017.3 |
| 20260502034540 | 40 | 28 | 0.0 | 0.0 | 0.00 | 0.00 | 0.00 | 62 | 1017.1 |
| 20260502033039 | 40 | 29 | 0.0 | 3.5 | 0.00 | 0.00 | 0.00 | 61 | 1017.1 |
| 20260502031539 | 40 | 38 | 1.7 | 7.0 | 0.00 | 0.00 | 0.00 | 60 | 1017.0 |
| 20260502030051 | 41 | 16 | 1.7 | 7.0 | 0.00 | 0.00 | 0.00 | 60 | 1017.0 |
| 20260502024543 | 41 | 5 | 1.7 | 6.1 | 0.00 | 0.00 | 0.00 | 59 | 1017.0 |
| 20260502023047 | 41 | 345 | 1.7 | 4.3 | 0.00 | 0.00 | 0.00 | 61 | 1016.8 |
| 20260502021540 | 41 | 40 | 2.6 | 7.8 | 0.00 | 0.00 | 0.00 | 60 | 1016.8 |
| 20260502020032 | 42 | 11 | 3.5 | 7.0 | 0.00 | 0.00 | 0.00 | 61 | 1016.7 |
| 20260502014538 | 42 | 27 | 1.7 | 5.2 | 0.00 | 0.00 | 0.00 | 60 | 1016.4 |
| 20260502013028 | 42 | 360 | 2.6 | 5.2 | 0.00 | 0.00 | 0.00 | 58 | 1016.3 |
| 20260502011527 | 42 | 326 | 1.7 | 7.0 | 0.00 | 0.00 | 0.00 | 61 | 1016.1 |
| 20260502010028 | 42 | 290 | 0.9 | 4.3 | 0.00 | 0.00 | 0.00 | 64 | 1015.9 |
| 20260502004524 | 42 | 289 | 1.7 | 4.3 | 0.00 | 0.00 | 0.00 | 64 | 1015.8 |
| 20260502003027 | 43 | 272 | 1.7 | 6.1 | 0.00 | 0.00 | 0.00 | 64 | 1015.8 |
| 20260502001523 | 43 | 288 | 1.7 | 6.1 | 0.00 | 0.00 | 0.00 | 64 | 1015.7 |
| 20260502000022 | 43 | 333 | 1.7 | 3.5 | 0.00 | 0.00 | 0.00 | 63 | 1015.6 |
| 20260501234522 | 43 | 297 | 1.7 | 4.3 | 0.00 | 0.00 | 0.00 | 64 | 1015.5 |
| 20260501233021 | 43 | 317 | 3.5 | 5.2 | 0.00 | 0.00 | 0.00 | 64 | 1015.6 |
| 20260501231522 | 44 | 325 | 1.7 | 5.2 | 0.00 | 0.00 | 0.00 | 63 | 1015.5 |
| 20260501230019 | 44 | 320 | 2.6 | 5.2 | 0.00 | 0.00 | 0.00 | 61 | 1015.4 |
| 20260501224517 | 44 | 294 | 2.6 | 5.2 | 0.00 | 0.00 | 0.00 | 61 | 1015.4 |
| 20260501223020 | 44 | 313 | 2.6 | 5.2 | 0.00 | 0.00 | 0.00 | 62 | 1015.3 |
| 20260501221516 | 44 | 290 | 1.7 | 4.3 | 0.00 | 0.00 | 0.00 | 63 | 1015.2 |
| 20260501220020 | 44 | 5 | 3.5 | 5.2 | 0.00 | 0.00 | 0.00 | 63 | 1015.2 |
| 20260501214515 | 44 | 332 | 1.7 | 5.2 | 0.00 | 0.00 | 0.00 | 64 | 1015.1 |
| 20260501213013 | 45 | 318 | 2.6 | 7.8 | 0.00 | 0.00 | 0.00 | 63 | 1015.1 |
| 20260501211513 | 44 | 360 | 2.6 | 7.0 | 0.00 | 0.00 | 0.00 | 62 | 1015.0 |
| 20260501210012 | 44 | 333 | 2.6 | 7.8 | 0.00 | 0.00 | 0.00 | 62 | 1015.0 |
| 20260501204510 | 46 | 346 | 2.6 | 5.2 | 0.00 | 0.00 | 0.00 | 58 | 1014.9 |
| 20260501203028 | 46 | 281 | 3.5 | 7.0 | 0.00 | 0.00 | 0.00 | 57 | 1014.7 |
| 20260501201509 | 46 | 323 | 3.5 | 7.0 | 0.00 | 0.00 | 0.00 | 58 | 1014.8 |
| 20260501200011 | 46 | 284 | 3.5 | 7.0 | 0.00 | 0.00 | 0.00 | 58 | 1014.7 |